Location: Marcé
(47.5801°N, 0.3280°W)
Time: 14:41:13
(UTC+01:00)

Explorer 7 - Pass Details

Date: 07 December 2021
Orbit: 483 x 674 km, 50.3° (Epoch: 19 January)

Event Time Altitude Azimuth Distance (km) Brightness Sun altitude
Rises 04:42:40 0° 205° (SSW) 2,899 - -38.2°
Reaches altitude 10° 04:45:25 10° 191° (S) 1,962 - -37.8°
Maximum altitude 04:48:54 22° 140° (SE) 1,292 - -37.2°
Exits shadow 04:51:33 13° 95° (E) 1,679 9.9 -36.7°
Drops below altitude 10° 04:52:15 10° 88° (E) 1,874 10.3 -36.6°
Sets 04:54:48 0° 73° (ENE) 2,735 11.3 -36.2°
